Home   Weather   Aurich   Past weeks

Flag for Germany Past Weather in Aurich, Lower Saxony, Germany — Yesterday and Last 2 Weeks

Now
21 °F

Ice fog.


Feels Like: 15 °F
Forecast: 29 / 38 °F
Wind: 5 mph from South

Location: Wittmundhaven

Current Time: Jan 18, 2017 at 5:33:35 am

Latest Report: Jan 18, 2017 at 4:20 am


Visibility: 2 mi

Pressure: 30.72 "Hg

Humidity: 93%

Dew Point: 19 °F

Location of AurichLocation

Past Weather in Aurich — Graph

°F

Aurich Temperature Yesterday

Maximum temperature yesterday: 32 °F (at 2:20 pm)
Minimum temperature yesterday: 19 °F (at 12:20 am)
Average temperature yesterday: 24 °F

High & Low Weather Summary for the Past Weeks

 TemperatureHumidityPressure
High46 °F (Jan 3, 10:49 pm)100% (Jan 3, 3:20 pm)30.74 "Hg (Jan 3, 3:20 pm)
Low18 °F (Jan 6, 4:20 am)59% (Jan 5, 3:20 pm)29.12 "Hg (Jan 13, 2:20 am)
Average35 °F87%30.01 "Hg
* Reported Jan 3 4:20 am — Jan 18 4:20 am, Aurich, Weather by CustomWeather, © 2017

Note: Actual official high and low records may vary slightly from our data, if they occured in-between our weather recording intervals... More about our weather records

Advertising

Aurich Weather History for the Previous 24 Hours

Scroll right to see more
 ConditionsComfort  
Time TempWeatherWind HumidityBarometerVisibility
4:20 am
Wed, Jan 18
21 °FIce fog.5 mph93%30.72 "Hg2 mi
3:20 am21 °FIce fog.5 mph93%30.72 "Hg2 mi
2:20 am19 °FIce fog.3 mph100%30.72 "Hg1 mi
1:20 am19 °FIce fog.3 mph100%30.72 "Hg1 mi
12:20 am21 °FIce fog.3 mph93%30.72 "Hg1 mi
11:20 pm
Tue, Jan 17
21 °FIce fog.5 mph93%30.72 "Hg0 mi
10:20 pm23 °FIce fog.3 mph93%30.72 "Hg0 mi
9:20 pm23 °FIce fog.6 mph100%30.69 "Hg0 mi
8:53 pm23 °FIce fog.3 mph100%30.72 "Hg1 mi
8:40 pm25 °FIce fog.3 mph93%30.69 "Hg2 mi
7:20 pm25 °FIce fog.5 mph100%30.69 "Hg3 mi
6:20 pm27 °FIce fog.3 mph93%30.69 "Hg3 mi
5:20 pm28 °FPassing clouds.5 mph93%30.66 "Hg4 mi
4:20 pm30 °FPartly sunny.3 mph86%30.66 "HgN/A
3:20 pm30 °FBroken clouds.2 mph93%30.66 "HgN/A
2:20 pm32 °FPartly sunny.5 mph87%30.66 "HgN/A
1:20 pm30 °FPartly sunny.2 mph93%30.66 "HgN/A
12:20 pm30 °FPartly sunny.3 mph86%30.66 "HgN/A
11:20 am25 °FBroken clouds.3 mph93%30.66 "HgN/A
10:20 am25 °FPartly sunny.2 mph93%30.66 "HgN/A
9:20 am23 °FPartly sunny.3 mph93%30.63 "HgN/A
8:56 am23 °FPartly sunny.3 mph93%30.63 "HgN/A
8:20 am23 °FPassing clouds.3 mph93%30.63 "HgN/A
7:20 am21 °FFog.2 mph93%30.60 "HgN/A
6:20 am19 °FFog.2 mph100%30.57 "HgN/A
5:20 am19 °FFog.2 mph93%30.57 "HgN/A
Weather by CustomWeather, © 2017

See weather overviewHow to use our weather pages